| time (UTC) | temp C | wind direction | speed KPH | gust KPH | rain 1hr cm | rain 24hr cm | rain mn cm | humidity % | barometer mb |
| 20260509212918 | 19 | 284 | 11.3 | 27.4 | 0.00 | 2.03 | 1.14 | 55 | 1003.0 |
| 20260509212418 | 19 | 262 | 11.3 | 30.6 | 0.00 | 2.06 | 1.14 | 55 | 1003.3 |
| 20260509211918 | 19 | 295 | 11.3 | 30.6 | 0.00 | 2.06 | 1.14 | 55 | 1003.1 |
| 20260509211418 | 19 | 274 | 11.3 | 25.7 | 0.00 | 2.06 | 1.14 | 55 | 1003.0 |
| 20260509210919 | 19 | 268 | 11.3 | 25.7 | 0.00 | 2.06 | 1.14 | 55 | 1003.0 |
| 20260509210413 | 18 | 312 | 8.0 | 20.9 | 0.00 | 2.06 | 1.14 | 56 | 1003.3 |
| 20260509210304 | 18 | 294 | 8.0 | 25.7 | 0.00 | 2.06 | 1.14 | 57 | 1003.6 |
| 20260509210153 | 18 | 286 | 6.4 | 25.7 | 0.00 | 2.06 | 1.14 | 58 | 1003.4 |
| 20260509204912 | 18 | 295 | 11.3 | 22.5 | 0.00 | 2.06 | 1.14 | 60 | 1003.7 |
| 20260509204411 | 18 | 5 | 11.3 | 29.0 | 0.00 | 2.06 | 1.14 | 59 | 1003.7 |
| 20260509203912 | 18 | 188 | 12.9 | 29.0 | 0.00 | 2.06 | 1.14 | 58 | 1003.9 |
| 20260509203414 | 19 | 298 | 11.3 | 22.5 | 0.00 | 2.06 | 1.14 | 58 | 1003.8 |
| 20260509203140 | 19 | 278 | 9.7 | 22.5 | 0.00 | 2.06 | 1.14 | 60 | 1003.8 |
| 20260509202410 | 19 | 188 | 8.0 | 16.1 | 0.00 | 2.06 | 1.14 | 59 | 1003.9 |
| 20260509201907 | 19 | 270 | 6.4 | 19.3 | 0.00 | 2.06 | 1.14 | 59 | 1003.9 |
| 20260509201408 | 19 | 207 | 4.8 | 19.3 | 0.00 | 2.06 | 1.14 | 59 | 1004.1 |
| 20260509200909 | 19 | 260 | 6.4 | 24.1 | 0.00 | 2.06 | 1.14 | 60 | 1004.0 |
| 20260509200410 | 19 | 251 | 8.0 | 24.1 | 0.00 | 2.06 | 1.14 | 59 | 1004.1 |
| 20260509195907 | 19 | 254 | 8.0 | 22.5 | 0.00 | 2.06 | 1.14 | 60 | 1004.1 |
| 20260509195401 | 18 | 288 | 9.7 | 22.5 | 0.00 | 2.06 | 1.14 | 61 | 1004.2 |
| 20260509194902 | 18 | 259 | 9.7 | 20.9 | 0.00 | 2.06 | 1.14 | 62 | 1004.2 |
| 20260509194402 | 18 | 226 | 9.7 | 20.9 | 0.00 | 2.06 | 1.14 | 62 | 1004.3 |
| 20260509194134 | 18 | 298 | 8.0 | 22.5 | 0.00 | 2.06 | 1.14 | 64 | 1004.3 |
| 20260509193404 | 18 | 296 | 8.0 | 22.5 | 0.00 | 2.06 | 1.14 | 65 | 1004.3 |
| 20260509192902 | 18 | 293 | 8.0 | 20.9 | 0.00 | 2.06 | 1.14 | 66 | 1004.4 |
| 20260509192402 | 17 | 261 | 6.4 | 17.7 | 0.00 | 2.06 | 1.14 | 67 | 1004.6 |
| 20260509191855 | 17 | 213 | 6.4 | 17.7 | 0.00 | 2.06 | 1.14 | 69 | 1004.6 |
| 20260509191357 | 17 | 300 | 4.8 | 19.3 | 0.00 | 2.06 | 1.14 | 69 | 1004.8 |
| 20260509190856 | 17 | 255 | 6.4 | 20.9 | 0.00 | 2.06 | 1.14 | 70 | 1004.9 |
| 20260509190351 | 17 | 232 | 6.4 | 20.9 | 0.00 | 2.06 | 1.14 | 70 | 1004.8 |
| 20260509185852 | 17 | 266 | 6.4 | 17.7 | 0.00 | 2.06 | 1.14 | 72 | 1004.8 |
| 20260509185352 | 17 | 296 | 6.4 | 16.1 | 0.00 | 2.06 | 1.14 | 73 | 1004.7 |
| 20260509184851 | 16 | 293 | 4.8 | 16.1 | 0.00 | 2.06 | 1.14 | 74 | 1004.8 |
| 20260509184350 | 16 | 302 | 3.2 | 12.9 | 0.00 | 2.06 | 1.14 | 76 | 1004.8 |
| 20260509183851 | 16 | 306 | 1.6 | 12.9 | 0.00 | 2.06 | 1.14 | 78 | 1004.8 |
| 20260509183349 | 16 | 306 | 1.6 | 14.5 | 0.00 | 2.06 | 1.14 | 78 | 1004.9 |
| 20260509182846 | 15 | 306 | 3.2 | 14.5 | 0.00 | 2.06 | 1.14 | 78 | 1004.9 |
| 20260509182343 | 15 | 306 | 4.8 | 22.5 | 0.00 | 2.06 | 1.14 | 78 | 1004.9 |
| 20260509181838 | 15 | 327 | 3.2 | 22.5 | 0.00 | 2.06 | 1.14 | 80 | 1005.0 |
| 20260509181338 | 15 | 225 | 3.2 | 12.9 | 0.00 | 2.06 | 1.14 | 81 | 1005.1 |
| 20260509181108 | 15 | 220 | 3.2 | 12.9 | 0.00 | 2.06 | 1.14 | 81 | 1005.1 |
| 20260509180337 | 15 | 211 | 3.2 | 12.9 | 0.00 | 2.06 | 1.14 | 83 | 1005.2 |
| 20260509180110 | 15 | 213 | 3.2 | 12.9 | 0.00 | 2.06 | 1.14 | 82 | 1005.2 |
| 20260509175339 | 15 | 102 | 1.6 | 11.3 | 0.00 | 2.06 | 1.14 | 85 | 1005.2 |
| 20260509174834 | 14 | 102 | 3.2 | 12.9 | 0.00 | 2.06 | 1.14 | 84 | 1005.3 |
| 20260509174333 | 14 | 91 | 3.2 | 12.9 | 0.00 | 2.06 | 1.14 | 86 | 1005.4 |
| 20260509173833 | 13 | 226 | 3.2 | 11.3 | 0.00 | 2.06 | 1.14 | 87 | 1005.4 |
| 20260509173332 | 13 | 226 | 1.6 | 9.7 | 0.00 | 2.06 | 1.14 | 89 | 1005.6 |
| 20260509172832 | 13 | 226 | 1.6 | 8.0 | 0.00 | 2.06 | 1.14 | 89 | 1005.6 |
| 20260509172332 | 13 | 226 | 1.6 | 8.0 | 0.00 | 2.06 | 1.14 | 89 | 1005.6 |
| 20260509172058 | 13 | 226 | 1.6 | 8.0 | 0.00 | 2.06 | 1.14 | 90 | 1005.6 |
| 20260509171329 | 13 | 226 | 1.6 | 8.0 | 0.00 | 2.06 | 1.14 | 91 | 1005.7 |
| 20260509171058 | 12 | 226 | 1.6 | 8.0 | 0.00 | 2.06 | 1.14 | 91 | 1005.7 |
| 20260509170328 | 12 | 226 | 0.0 | 1.6 | 0.00 | 2.06 | 1.14 | 91 | 1005.8 |
| 20260509165827 | 12 | 226 | 0.0 | 3.2 | 0.00 | 2.06 | 1.14 | 92 | 1005.8 |
| 20260509165326 | 12 | 226 | 1.6 | 4.8 | 0.00 | 2.06 | 1.14 | 92 | 1005.7 |
| 20260509164822 | 12 | 226 | 1.6 | 11.3 | 0.00 | 2.06 | 1.14 | 92 | 1005.8 |
| 20260509164321 | 12 | 226 | 1.6 | 11.3 | 0.00 | 2.06 | 1.14 | 93 | 1005.7 |
| 20260509163821 | 12 | 226 | 1.6 | 8.0 | 0.00 | 2.06 | 1.14 | 94 | 1005.8 |
| 20260509163321 | 12 | 226 | 1.6 | 4.8 | 0.00 | 2.06 | 1.14 | 94 | 1005.8 |
| 20260509162820 | 12 | 226 | 1.6 | 4.8 | 0.00 | 2.06 | 1.14 | 95 | 1005.7 |
| 20260509162322 | 11 | 226 | 0.0 | 4.8 | 0.00 | 2.06 | 1.14 | 95 | 1005.7 |
| 20260509161817 | 11 | 226 | 0.0 | 3.2 | 0.00 | 2.06 | 1.14 | 94 | 1005.8 |
| 20260509161316 | 11 | 226 | 0.0 | 1.6 | 0.00 | 2.06 | 1.14 | 95 | 1005.7 |
| 20260509160818 | 11 | 226 | 0.0 | 4.8 | 0.00 | 2.06 | 1.14 | 95 | 1005.7 |
| 20260509160316 | 11 | 226 | 0.0 | 4.8 | 0.00 | 2.06 | 1.14 | 94 | 1005.7 |
| 20260509160047 | 11 | 226 | 0.0 | 1.6 | 0.00 | 2.06 | 1.14 | 94 | 1005.6 |
| 20260509155545 | 11 | 226 | 0.0 | 1.6 | 0.00 | 2.06 | 1.14 | 94 | 1005.6 |
| 20260509154811 | 11 | 226 | 0.0 | 1.6 | 0.00 | 2.06 | 1.14 | 95 | 1005.6 |
| 20260509154309 | 11 | 226 | 0.0 | 1.6 | 0.00 | 2.06 | 1.14 | 95 | 1005.6 |
| 20260509153810 | 11 | 226 | 0.0 | 1.6 | 0.00 | 2.06 | 1.14 | 95 | 1005.5 |
| 20260509153311 | 11 | 226 | 0.0 | 0.0 | 0.00 | 2.06 | 1.14 | 95 | 1005.6 |
| 20260509152810 | 11 | 226 | 0.0 | 0.0 | 0.00 | 2.06 | 1.14 | 95 | 1005.5 |
| 20260509152308 | 11 | 226 | 0.0 | 1.6 | 0.00 | 2.06 | 1.14 | 95 | 1005.7 |
| 20260509152038 | 10 | 226 | 0.0 | 1.6 | 0.00 | 2.06 | 1.14 | 95 | 1005.6 |
| 20260509151306 | 10 | 226 | 0.0 | 1.6 | 0.00 | 2.06 | 1.14 | 95 | 1005.6 |
| 20260509150806 | 10 | 226 | 0.0 | 0.0 | 0.00 | 2.06 | 1.14 | 95 | 1005.6 |
| 20260509150304 | 10 | 226 | 0.0 | 0.0 | 0.00 | 2.06 | 1.14 | 95 | 1005.6 |
| 20260509145803 | 10 | 226 | 0.0 | 0.0 | 0.03 | 2.06 | 1.14 | 95 | 1005.7 |
| 20260509145306 | 10 | 226 | 0.0 | 0.0 | 0.05 | 2.06 | 1.14 | 95 | 1005.7 |
| 20260509145026 | 10 | 226 | 0.0 | 0.0 | 0.08 | 2.06 | 1.14 | 95 | 1005.6 |
| 20260509144526 | 10 | 226 | 0.0 | 0.0 | 0.08 | 2.06 | 1.14 | 95 | 1005.7 |
| 20260509143752 | 10 | 226 | 0.0 | 0.0 | 0.08 | 2.06 | 1.14 | 95 | 1005.6 |
| 20260509143251 | 10 | 226 | 0.0 | 1.6 | 0.08 | 2.06 | 1.14 | 95 | 1005.7 |
| 20260509143023 | 10 | 226 | 0.0 | 1.6 | 0.08 | 2.06 | 1.14 | 95 | 1005.7 |
| 20260509142519 | 10 | 226 | 0.0 | 1.6 | 0.08 | 2.06 | 1.14 | 95 | 1005.6 |
| 20260509141746 | 10 | 226 | 0.0 | 1.6 | 0.08 | 2.06 | 1.14 | 95 | 1005.6 |
| 20260509141246 | 10 | 226 | 0.0 | 1.6 | 0.08 | 2.06 | 1.14 | 95 | 1005.5 |
| 20260509141018 | 10 | 226 | 0.0 | 0.0 | 0.08 | 2.06 | 1.14 | 95 | 1005.7 |
| 20260509140251 | 10 | 226 | 0.0 | 1.6 | 0.05 | 2.03 | 1.12 | 95 | 1005.7 |
| 20260509140246 | 10 | 226 | 0.0 | 0.0 | 0.05 | 2.03 | 1.12 | 95 | 1005.7 |
| 20260509135242 | 10 | 226 | 0.0 | 1.6 | 0.03 | 2.01 | 1.09 | 95 | 1005.8 |
| 20260509134741 | 10 | 226 | 0.0 | 1.6 | 0.00 | 1.98 | 1.07 | 95 | 1005.8 |
| 20260509134241 | 10 | 226 | 0.0 | 1.6 | 0.00 | 1.98 | 1.07 | 95 | 1005.8 |
| 20260509133740 | 10 | 226 | 0.0 | 1.6 | 0.00 | 1.98 | 1.07 | 95 | 1005.8 |
| 20260509133239 | 10 | 226 | 0.0 | 1.6 | 0.00 | 1.98 | 1.07 | 95 | 1005.9 |
| 20260509132738 | 10 | 226 | 0.0 | 1.6 | 0.00 | 1.98 | 1.07 | 95 | 1005.9 |
| 20260509132237 | 10 | 226 | 0.0 | 1.6 | 0.00 | 1.98 | 1.07 | 95 | 1005.9 |
| 20260509131733 | 10 | 226 | 0.0 | 1.6 | 0.00 | 1.98 | 1.07 | 95 | 1005.8 |
| 20260509131232 | 10 | 226 | 0.0 | 1.6 | 0.00 | 1.98 | 1.07 | 95 | 1005.9 |
| 20260509130730 | 9 | 226 | 0.0 | 1.6 | 0.00 | 1.98 | 1.07 | 95 | 1005.8 |
| 20260509130228 | 9 | 226 | 0.0 | 1.6 | 0.03 | 1.98 | 1.07 | 95 | 1005.7 |
| 20260509125959 | 9 | 226 | 0.0 | 1.6 | 0.03 | 1.98 | 1.07 | 95 | 1005.7 |
| 20260509125222 | 9 | 226 | 0.0 | 0.0 | 0.03 | 1.98 | 1.07 | 95 | 1005.7 |
| 20260509124721 | 9 | 226 | 0.0 | 0.0 | 0.03 | 1.98 | 1.07 | 95 | 1005.8 |
| 20260509124221 | 9 | 226 | 0.0 | 0.0 | 0.03 | 1.98 | 1.07 | 95 | 1006.0 |
| 20260509123722 | 9 | 226 | 0.0 | 0.0 | 0.03 | 1.98 | 1.07 | 95 | 1006.0 |
| 20260509123222 | 9 | 226 | 0.0 | 0.0 | 0.03 | 1.98 | 1.07 | 95 | 1006.1 |
| 20260509122955 | 9 | 226 | 0.0 | 0.0 | 0.03 | 1.98 | 1.07 | 95 | 1006.2 |
| 20260509122216 | 9 | 226 | 0.0 | 0.0 | 0.03 | 1.98 | 1.07 | 95 | 1006.2 |
| 20260509121945 | 9 | 226 | 0.0 | 0.0 | 0.03 | 1.98 | 1.07 | 95 | 1006.2 |
| 20260509121212 | 9 | 226 | 0.0 | 0.0 | 0.03 | 1.98 | 1.07 | 95 | 1006.2 |
| 20260509120710 | 9 | 226 | 0.0 | 0.0 | 0.03 | 1.98 | 1.07 | 95 | 1006.3 |
| 20260509120212 | 9 | 226 | 0.0 | 0.0 | 0.00 | 1.96 | 1.04 | 95 | 1006.2 |
| 20260509115708 | 9 | 226 | 0.0 | 0.0 | 0.00 | 1.96 | 1.04 | 95 | 1006.2 |
| 20260509115211 | 9 | 226 | 0.0 | 0.0 | 0.03 | 1.96 | 1.04 | 95 | 1006.2 |
| 20260509115206 | 9 | 226 | 0.0 | 0.0 | 0.03 | 1.96 | 1.04 | 95 | 1006.2 |
| 20260509114205 | 9 | 226 | 0.0 | 0.0 | 0.03 | 1.96 | 1.04 | 95 | 1006.2 |
| 20260509113935 | 9 | 226 | 0.0 | 0.0 | 0.03 | 1.96 | 1.04 | 95 | 1006.1 |
| 20260509113204 | 9 | 226 | 0.0 | 0.0 | 0.03 | 1.96 | 1.04 | 95 | 1006.1 |
| 20260509112929 | 9 | 226 | 0.0 | 0.0 | 0.03 | 1.96 | 1.04 | 95 | 1006.1 |
| 20260509112155 | 9 | 226 | 0.0 | 0.0 | 0.03 | 1.96 | 1.04 | 95 | 1006.2 |
| 20260509111654 | 9 | 226 | 0.0 | 0.0 | 0.05 | 1.96 | 1.04 | 95 | 1006.2 |
| 20260509111152 | 9 | 226 | 0.0 | 0.0 | 0.08 | 1.96 | 1.04 | 95 | 1006.2 |
| 20260509110652 | 9 | 226 | 0.0 | 0.0 | 0.10 | 1.96 | 1.04 | 95 | 1006.3 |
| 20260509110422 | 9 | 226 | 0.0 | 0.0 | 0.10 | 1.96 | 1.04 | 95 | 1006.2 |
| 20260509105648 | 9 | 226 | 0.0 | 0.0 | 0.10 | 1.93 | 1.04 | 95 | 1006.2 |
| 20260509105148 | 9 | 226 | 0.0 | 1.6 | 0.13 | 1.93 | 1.02 | 95 | 1006.2 |
| 20260509104648 | 9 | 226 | 0.0 | 1.6 | 0.13 | 1.93 | 1.02 | 95 | 1006.3 |
| 20260509104146 | 9 | 226 | 0.0 | 3.2 | 0.15 | 1.93 | 1.02 | 95 | 1006.2 |
| 20260509103646 | 9 | 226 | 0.0 | 3.2 | 0.15 | 1.93 | 1.02 | 95 | 1006.3 |
| 20260509103140 | 8 | 226 | 0.0 | 1.6 | 0.18 | 1.93 | 1.02 | 95 | 1006.2 |
| 20260509102637 | 8 | 226 | 0.0 | 0.0 | 0.20 | 1.93 | 1.02 | 95 | 1006.4 |
| 20260509102137 | 8 | 226 | 0.0 | 0.0 | 0.20 | 1.93 | 1.02 | 95 | 1006.3 |
| 20260509101634 | 8 | 226 | 0.0 | 0.0 | 0.20 | 1.91 | 0.99 | 95 | 1006.2 |
| 20260509101133 | 8 | 226 | 0.0 | 0.0 | 0.20 | 1.88 | 0.97 | 95 | 1006.3 |
| 20260509100633 | 8 | 226 | 0.0 | 0.0 | 0.18 | 1.85 | 0.97 | 95 | 1006.3 |
| 20260509100130 | 8 | 226 | 0.0 | 0.0 | 0.15 | 1.83 | 0.94 | 95 | 1006.3 |
| 20260509095626 | 8 | 226 | 0.0 | 0.0 | 0.18 | 1.83 | 0.91 | 95 | 1006.4 |
| 20260509095128 | 8 | 226 | 0.0 | 0.0 | 0.15 | 1.80 | 0.89 | 95 | 1006.4 |
| 20260509094628 | 8 | 226 | 0.0 | 0.0 | 0.20 | 1.80 | 0.89 | 95 | 1006.4 |
| 20260509094130 | 8 | 226 | 0.0 | 0.0 | 0.23 | 1.78 | 0.86 | 95 | 1006.3 |
| 20260509093621 | 8 | 226 | 0.0 | 0.0 | 0.28 | 1.78 | 0.86 | 95 | 1006.6 |
| 20260509093121 | 8 | 226 | 0.0 | 0.0 | 0.28 | 1.75 | 0.84 | 94 | 1006.7 |
| 20260509092618 | 8 | 226 | 0.0 | 0.0 | 0.28 | 1.73 | 0.81 | 94 | 1006.7 |
| 20260509092116 | 8 | 226 | 0.0 | 0.0 | 0.33 | 1.73 | 0.81 | 94 | 1006.7 |
| 20260509091617 | 8 | 226 | 0.0 | 0.0 | 0.33 | 1.70 | 0.79 | 94 | 1006.7 |
| 20260509091110 | 8 | 226 | 0.0 | 0.0 | 0.33 | 1.68 | 0.76 | 94 | 1006.7 |
| 20260509090610 | 8 | 226 | 0.0 | 0.0 | 0.36 | 1.68 | 0.76 | 94 | 1006.7 |
| 20260509090108 | 8 | 226 | 0.0 | 0.0 | 0.36 | 1.68 | 0.76 | 94 | 1006.6 |
| 20260509085839 | 8 | 226 | 0.0 | 0.0 | 0.36 | 1.65 | 0.74 | 94 | 1006.7 |
| 20260509085106 | 8 | 226 | 0.0 | 0.0 | 0.36 | 1.65 | 0.74 | 94 | 1006.8 |
| 20260509084839 | 8 | 226 | 0.0 | 1.6 | 0.33 | 1.60 | 0.69 | 94 | 1006.9 |
| 20260509084332 | 8 | 226 | 0.0 | 1.6 | 0.28 | 1.55 | 0.64 | 94 | 1006.9 |
| 20260509083600 | 8 | 226 | 0.0 | 6.4 | 0.23 | 1.50 | 0.58 | 94 | 1006.9 |
| 20260509083058 | 8 | 226 | 0.0 | 6.4 | 0.23 | 1.47 | 0.56 | 94 | 1006.9 |
| 20260509082559 | 8 | 226 | 0.0 | 4.8 | 0.20 | 1.45 | 0.53 | 94 | 1006.8 |
| 20260509082056 | 8 | 226 | 0.0 | 3.2 | 0.18 | 1.42 | 0.51 | 94 | 1006.8 |
| 20260509081554 | 8 | 226 | 0.0 | 3.2 | 0.15 | 1.40 | 0.46 | 94 | 1006.8 |
| 20260509081052 | 8 | 226 | 0.0 | 3.2 | 0.13 | 1.37 | 0.43 | 94 | 1006.9 |
| 20260509080552 | 8 | 226 | 0.0 | 4.8 | 0.10 | 1.35 | 0.41 | 94 | 1006.8 |
| 20260509080050 | 8 | 226 | 0.0 | 4.8 | 0.13 | 1.35 | 0.41 | 94 | 1006.8 |
| 20260509075550 | 8 | 226 | 0.0 | 1.6 | 0.10 | 1.32 | 0.38 | 94 | 1006.7 |
| 20260509075048 | 8 | 226 | 0.0 | 1.6 | 0.10 | 1.32 | 0.38 | 94 | 1006.8 |
| 20260509074545 | 8 | 226 | 0.0 | 1.6 | 0.08 | 1.30 | 0.36 | 94 | 1006.8 |
| 20260509074046 | 8 | 226 | 0.0 | 1.6 | 0.10 | 1.30 | 0.36 | 94 | 1006.9 |
| 20260509073042 | 8 | 226 | 0.0 | 0.0 | 0.10 | 1.27 | 0.33 | 94 | 1006.9 |
| 20260509072542 | 8 | 226 | 0.0 | 0.0 | 0.10 | 1.27 | 0.33 | 94 | 1006.9 |
| 20260509072040 | 8 | 226 | 0.0 | 0.0 | 0.08 | 1.24 | 0.30 | 94 | 1007.0 |
| 20260509071538 | 8 | 226 | 0.0 | 0.0 | 0.08 | 1.24 | 0.30 | 94 | 1007.0 |
| 20260509071035 | 8 | 226 | 0.0 | 0.0 | 0.10 | 1.24 | 0.30 | 94 | 1006.9 |
| 20260509070536 | 8 | 226 | 0.0 | 0.0 | 0.08 | 1.22 | 0.30 | 94 | 1006.9 |
| 20260509070308 | 8 | 226 | 0.0 | 1.6 | 0.08 | 1.22 | 0.28 | 94 | 1007.1 |
| 20260509065538 | 8 | 226 | 0.0 | 1.6 | 0.08 | 1.22 | 0.28 | 94 | 1007.1 |
| 20260509065034 | 8 | 226 | 0.0 | 0.0 | 0.08 | 1.22 | 0.28 | 94 | 1007.1 |
| 20260509064537 | 8 | 226 | 0.0 | 0.0 | 0.10 | 1.22 | 0.28 | 94 | 1007.0 |
| 20260509064529 | 8 | 226 | 0.0 | 0.0 | 0.08 | 1.19 | 0.25 | 94 | 1007.1 |
| 20260509063757 | 8 | 226 | 0.0 | 1.6 | 0.08 | 1.19 | 0.25 | 94 | 1007.2 |
| 20260509063025 | 8 | 226 | 0.0 | 1.6 | 0.08 | 1.17 | 0.23 | 94 | 1007.4 |
| 20260509062528 | 8 | 226 | 0.0 | 0.0 | 0.08 | 1.17 | 0.23 | 94 | 1007.6 |
| 20260509062025 | 8 | 226 | 0.0 | 0.0 | 0.10 | 1.17 | 0.23 | 94 | 1007.7 |
| 20260509061524 | 8 | 226 | 0.0 | 0.0 | 0.10 | 1.17 | 0.23 | 94 | 1007.7 |
| 20260509061026 | 8 | 226 | 0.0 | 0.0 | 0.10 | 1.14 | 0.20 | 94 | 1007.7 |
| 20260509060521 | 8 | 226 | 0.0 | 0.0 | 0.10 | 1.14 | 0.20 | 94 | 1007.8 |
| 20260509060021 | 8 | 226 | 0.0 | 0.0 | 0.13 | 1.14 | 0.20 | 94 | 1007.8 |
| 20260509055522 | 8 | 226 | 0.0 | 0.0 | 0.13 | 1.14 | 0.20 | 94 | 1007.6 |
| 20260509055021 | 8 | 226 | 0.0 | 0.0 | 0.15 | 1.14 | 0.20 | 94 | 1007.8 |
| 20260509054521 | 8 | 226 | 0.0 | 0.0 | 0.13 | 1.12 | 0.18 | 94 | 1007.9 |
| 20260509054022 | 8 | 226 | 0.0 | 0.0 | 0.13 | 1.12 | 0.18 | 94 | 1007.9 |
| 20260509053516 | 8 | 226 | 0.0 | 0.0 | 0.15 | 1.12 | 0.18 | 94 | 1008.1 |
| 20260509053248 | 8 | 226 | 0.0 | 0.0 | 0.13 | 1.09 | 0.15 | 94 | 1008.2 |
| 20260509052748 | 8 | 226 | 0.0 | 0.0 | 0.13 | 1.09 | 0.15 | 94 | 1008.2 |
| 20260509052016 | 8 | 226 | 0.0 | 0.0 | 0.10 | 1.07 | 0.13 | 94 | 1008.4 |
| 20260509051517 | 8 | 226 | 0.0 | 0.0 | 0.10 | 1.07 | 0.13 | 94 | 1008.6 |
| 20260509051018 | 8 | 226 | 0.0 | 0.0 | 0.08 | 1.04 | 0.10 | 94 | 1008.6 |
| 20260509050512 | 8 | 226 | 0.0 | 0.0 | 0.08 | 1.04 | 0.10 | 94 | 1008.6 |
| 20260509050013 | 8 | 226 | 0.0 | 0.0 | 0.08 | 1.02 | 0.08 | 94 | 1008.7 |
| 20260509045744 | 8 | 226 | 0.0 | 1.6 | 0.08 | 1.02 | 0.08 | 94 | 1008.8 |
| 20260509045012 | 8 | 226 | 0.0 | 1.6 | 0.05 | 0.99 | 0.05 | 94 | 1008.7 |
| 20260509044514 | 8 | 226 | 0.0 | 0.0 | 0.05 | 0.99 | 0.05 | 94 | 1008.7 |
| 20260509044015 | 8 | 226 | 0.0 | 1.6 | 0.08 | 0.99 | 0.05 | 94 | 1008.7 |
| 20260509043509 | 8 | 226 | 0.0 | 1.6 | 0.08 | 0.97 | 0.03 | 94 | 1008.8 |
| 20260509043010 | 8 | 226 | 0.0 | 1.6 | 0.08 | 0.97 | 0.03 | 93 | 1008.8 |
| 20260509042509 | 8 | 226 | 0.0 | 1.6 | 0.08 | 0.97 | 0.03 | 93 | 1008.8 |
| 20260509042008 | 8 | 226 | 0.0 | 1.6 | 0.10 | 0.97 | 0.03 | 93 | 1008.9 |
| 20260509041508 | 8 | 226 | 0.0 | 1.6 | 0.10 | 0.97 | 0.03 | 93 | 1009.0 |
| 20260509041010 | 8 | 226 | 0.0 | 1.6 | 0.13 | 0.97 | 0.03 | 93 | 1009.1 |
| 20260509040741 | 8 | 226 | 0.0 | 1.6 | 0.15 | 0.97 | 0.03 | 98 | 1009.0 |
| 20260509040006 | 8 | 226 | 0.0 | 0.0 | 0.15 | 0.94 | 0.00 | 94 | 1009.1 |
| 20260509035506 | 8 | 226 | 0.0 | 1.6 | 0.15 | 0.94 | 0.94 | 94 | 1009.1 |
| 20260509035003 | 8 | 226 | 0.0 | 1.6 | 0.18 | 0.94 | 0.94 | 93 | 1009.1 |
| 20260509034735 | 8 | 226 | 0.0 | 1.6 | 0.20 | 0.94 | 0.94 | 93 | 1009.1 |
| 20260509034003 | 8 | 226 | 0.0 | 1.6 | 0.20 | 0.91 | 0.91 | 93 | 1009.1 |
| 20260509033502 | 8 | 226 | 0.0 | 3.2 | 0.20 | 0.89 | 0.89 | 93 | 1009.2 |
| 20260509032959 | 8 | 226 | 0.0 | 3.2 | 0.23 | 0.89 | 0.89 | 93 | 1009.3 |
| 20260509032459 | 8 | 226 | 0.0 | 3.2 | 0.23 | 0.89 | 0.89 | 93 | 1009.3 |
| 20260509032001 | 8 | 226 | 0.0 | 1.6 | 0.23 | 0.86 | 0.86 | 93 | 1009.4 |
| 20260509031725 | 8 | 226 | 0.0 | 1.6 | 0.23 | 0.86 | 0.86 | 93 | 1009.4 |
| 20260509031223 | 8 | 226 | 0.0 | 1.6 | 0.23 | 0.84 | 0.84 | 93 | 1009.3 |
| 20260509030451 | 8 | 226 | 0.0 | 1.6 | 0.20 | 0.81 | 0.81 | 93 | 1009.5 |
| 20260509025952 | 8 | 226 | 0.0 | 1.6 | 0.20 | 0.79 | 0.79 | 93 | 1009.5 |
| 20260509025451 | 9 | 226 | 0.0 | 1.6 | 0.23 | 0.79 | 0.79 | 93 | 1009.5 |
| 20260509025223 | 9 | 226 | 0.0 | 1.6 | 0.20 | 0.76 | 0.76 | 93 | 1009.5 |
| 20260509024451 | 9 | 226 | 0.0 | 1.6 | 0.20 | 0.74 | 0.74 | 93 | 1009.5 |
| 20260509023948 | 9 | 226 | 0.0 | 3.2 | 0.20 | 0.71 | 0.71 | 93 | 1009.6 |
| 20260509023450 | 9 | 226 | 0.0 | 3.2 | 0.20 | 0.69 | 0.69 | 93 | 1009.7 |
| 20260509022950 | 9 | 226 | 0.0 | 1.6 | 0.20 | 0.66 | 0.69 | 93 | 1009.7 |
| 20260509022451 | 8 | 226 | 0.0 | 1.6 | 0.23 | 0.64 | 0.64 | 93 | 1009.9 |
| 20260509022446 | 9 | 226 | 0.0 | 1.6 | 0.23 | 0.66 | 0.66 | 93 | 1009.9 |
| 20260509021443 | 8 | 226 | 0.0 | 0.0 | 0.23 | 0.64 | 0.64 | 93 | 1009.6 |
| 20260509020943 | 8 | 226 | 0.0 | 1.6 | 0.23 | 0.61 | 0.61 | 93 | 1009.6 |
| 20260509020445 | 9 | 226 | 0.0 | 1.6 | 0.20 | 0.58 | 0.61 | 93 | 1009.6 |
| 20260509015943 | 9 | 226 | 0.0 | 0.0 | 0.23 | 0.58 | 0.58 | 93 | 1009.5 |
| 20260509015440 | 9 | 226 | 0.0 | 0.0 | 0.20 | 0.56 | 0.58 | 93 | 1009.5 |
| 20260509014942 | 9 | 226 | 0.0 | 0.0 | 0.23 | 0.56 | 0.56 | 93 | 1009.3 |
| 20260509014434 | 9 | 226 | 0.0 | 0.0 | 0.20 | 0.53 | 0.56 | 93 | 1009.3 |
| 20260509013931 | 9 | 226 | 0.0 | 0.0 | 0.20 | 0.51 | 0.51 | 92 | 1009.3 |
| 20260509013430 | 9 | 226 | 0.0 | 0.0 | 0.20 | 0.48 | 0.48 | 92 | 1009.4 |
| 20260509012928 | 9 | 226 | 0.0 | 0.0 | 0.18 | 0.46 | 0.46 | 92 | 1009.3 |
| 20260509012430 | 9 | 226 | 0.0 | 0.0 | 0.18 | 0.43 | 0.43 | 92 | 1009.1 |
| 20260509012423 | 9 | 226 | 0.0 | 0.0 | 0.18 | 0.41 | 0.41 | 92 | 1009.1 |
| 20260509011424 | 9 | 226 | 0.0 | 0.0 | 0.20 | 0.41 | 0.41 | 92 | 1009.1 |
| 20260509010922 | 9 | 226 | 0.0 | 0.0 | 0.20 | 0.38 | 0.38 | 92 | 1009.0 |
| 20260509010423 | 9 | 226 | 0.0 | 0.0 | 0.23 | 0.38 | 0.38 | 92 | 1008.9 |
| 20260509010151 | 9 | 226 | 0.0 | 0.0 | 0.23 | 0.36 | 0.36 | 91 | 1008.9 |
| 20260509005421 | 9 | 226 | 0.0 | 0.0 | 0.25 | 0.36 | 0.36 | 91 | 1008.9 |
| 20260509004919 | 9 | 226 | 0.0 | 0.0 | 0.25 | 0.33 | 0.33 | 91 | 1008.8 |
| 20260509004417 | 9 | 226 | 0.0 | 0.0 | 0.25 | 0.33 | 0.33 | 90 | 1008.8 |
| 20260509003917 | 9 | 226 | 0.0 | 0.0 | 0.25 | 0.30 | 0.30 | 90 | 1008.6 |
| 20260509003417 | 9 | 226 | 0.0 | 0.0 | 0.23 | 0.28 | 0.28 | 90 | 1008.7 |
| 20260509002917 | 9 | 226 | 0.0 | 1.6 | 0.20 | 0.25 | 0.28 | 89 | 1008.8 |
| 20260509002415 | 10 | 226 | 0.0 | 1.6 | 0.20 | 0.25 | 0.25 | 88 | 1009.0 |
| 20260509001914 | 10 | 226 | 0.0 | 4.8 | 0.18 | 0.23 | 0.23 | 87 | 1009.1 |
| 20260509001411 | 10 | 226 | 0.0 | 4.8 | 0.15 | 0.20 | 0.20 | 86 | 1009.0 |
| 20260509000912 | 10 | 226 | 1.6 | 8.0 | 0.13 | 0.18 | 0.18 | 84 | 1009.0 |
| 20260509000644 | 10 | 226 | 0.0 | 8.0 | 0.10 | 0.15 | 0.15 | 83 | 1009.0 |
| 20260508235908 | 11 | 226 | 0.0 | 1.6 | 0.08 | 0.13 | 0.13 | 81 | 1008.9 |
| 20260508235637 | 11 | 226 | 0.0 | 6.4 | 0.05 | 0.10 | 0.10 | 79 | 1008.7 |
| 20260508234906 | 11 | 226 | 0.0 | 6.4 | 0.03 | 0.08 | 0.08 | 77 | 1008.7 |
| 20260508234400 | 11 | 226 | 0.0 | 6.4 | 0.03 | 0.08 | 0.08 | 75 | 1008.6 |
| 20260508233859 | 12 | 226 | 0.0 | 6.4 | 0.00 | 0.05 | 0.05 | 74 | 1008.3 |
| 20260508233356 | 12 | 226 | 1.6 | 6.4 | 0.00 | 0.05 | 0.05 | 73 | 1008.2 |
| 20260508232855 | 12 | 226 | 1.6 | 6.4 | 0.00 | 0.05 | 0.05 | 70 | 1008.4 |
| 20260508232355 | 12 | 226 | 1.6 | 16.1 | 0.00 | 0.05 | 0.05 | 71 | 1008.4 |
| 20260508231849 | 12 | 229 | 1.6 | 16.1 | 0.00 | 0.05 | 0.05 | 69 | 1008.3 |
| 20260508231347 | 12 | 252 | 3.2 | 14.5 | 0.00 | 0.05 | 0.05 | 70 | 1008.2 |
| 20260508231116 | 12 | 251 | 3.2 | 14.5 | 0.00 | 0.05 | 0.05 | 70 | 1008.1 |
| 20260508230344 | 12 | 259 | 1.6 | 11.3 | 0.00 | 0.05 | 0.05 | 70 | 1008.0 |
| 20260508225841 | 12 | 264 | 3.2 | 12.9 | 0.00 | 0.05 | 0.05 | 71 | 1008.1 |
| 20260508225336 | 12 | 265 | 3.2 | 12.9 | 0.00 | 0.05 | 0.05 | 70 | 1008.2 |
| 20260508224837 | 12 | 265 | 3.2 | 14.5 | 0.00 | 0.05 | 0.05 | 71 | 1008.3 |
| 20260508224334 | 12 | 264 | 1.6 | 14.5 | 0.00 | 0.05 | 0.05 | 71 | 1008.2 |
| 20260508223834 | 12 | 260 | 3.2 | 16.1 | 0.00 | 0.05 | 0.05 | 72 | 1008.2 |
| 20260508223333 | 12 | 261 | 4.8 | 16.1 | 0.00 | 0.05 | 0.05 | 71 | 1008.1 |
| 20260508223104 | 12 | 243 | 4.8 | 16.1 | 0.00 | 0.05 | 0.05 | 72 | 1008.1 |
| 20260508222331 | 12 | 228 | 4.8 | 16.1 | 0.03 | 0.05 | 0.05 | 72 | 1008.1 |
| 20260508221829 | 12 | 131 | 3.2 | 14.5 | 0.03 | 0.05 | 0.05 | 72 | 1008.1 |
| 20260508221331 | 12 | 236 | 3.2 | 16.1 | 0.03 | 0.05 | 0.05 | 73 | 1008.1 |
| 20260508220829 | 12 | 290 | 3.2 | 16.1 | 0.03 | 0.05 | 0.05 | 73 | 1008.1 |
| 20260508220331 | 12 | 231 | 3.2 | 9.7 | 0.03 | 0.05 | 0.05 | 74 | 1008.2 |
| 20260508215831 | 12 | 236 | 4.8 | 20.9 | 0.03 | 0.05 | 0.05 | 74 | 1008.1 |
| 20260508215330 | 12 | 265 | 4.8 | 20.9 | 0.03 | 0.05 | 0.05 | 75 | 1008.0 |
| 20260508214825 | 12 | 259 | 4.8 | 19.3 | 0.03 | 0.05 | 0.05 | 75 | 1007.9 |
| 20260508214324 | 12 | 262 | 1.6 | 16.1 | 0.03 | 0.05 | 0.05 | 76 | 1008.0 |
| 20260508213825 | 12 | 263 | 1.6 | 11.3 | 0.03 | 0.05 | 0.05 | 78 | 1008.0 |
| 20260508213325 | 12 | 263 | 1.6 | 11.3 | 0.03 | 0.05 | 0.05 | 78 | 1008.0 |